This demonstration page uses our WeatherBlox Daily Observations layout. Learn more.

Left ArrowRight Arrow

41.86663, -103.66717

Hourly Observations for March 23, 2016

Temp ( °F °C ) Dew Point ( °F °C ) Humidity (%) Winds ( mph kmh ) Pressure ( in mb ) Visibility ( mi km ) Precip ( " mm )
12:53 am 00:53 Cloudy 41 5 32 undefined 70 70 NNE 13 20 29.55 1001 10 16 N/A
1:53 am 01:53 Cloudy 39 3.9 32 undefined 76 76 NNE 14 22 29.53 1000 10 16 N/A
2:44 am 02:44 Cloudy with Light Rain 39 4 32 undefined 75 75 NE 9 15 29.65 1004 10 16 N/A
2:53 am 02:53 Cloudy with Light Rain 39 3.9 32 undefined 76 76 NE 12 19 29.52 1000 10 16 N/A
3:34 am 03:34 Cloudy with Light Rain 37 3 34 1 87 87 NNE 24 39 29.65 1004 10 16 N/A
3:53 am 03:53 Cloudy with Light Rain 38 3.3 34 1.1 86 86 NNE 24 39 29.51 999 10 16 0.01 0.25
4:29 am 04:29 Windy with Snow Likely 36 2.2 35 1.7 97 97 NNE 32 52 29.68 1005 4 6 0.02 0.51
4:53 am 04:53 Windy with Snow Likely 36 2.2 35 1.7 97 97 NNE 29 46 29.52 1000 5 8 0.04 1.02
5:20 am 05:20 Windy with Snow Likely 36 2 N/A N/A NNE 29 46 29.68 1005 6 10 N/A
5:53 am 05:53 Windy with Snow Likely 36 2 N/A N/A NNE 26 43 29.56 1001 7 11 0.01 0.25
6:51 am 06:51 Windy with Snow Likely 34 1 N/A N/A NNE 36 57 29.71 1006 3 4 N/A
6:52 am 06:52 Windy with Snow Likely 34 1 N/A N/A NNE 37 59 29.60 1002 3 4 N/A
7:12 am 07:12 Windy with Snow Likely 32 undefined N/A N/A NNE 37 59 29.74 1007 2 2 N/A
7:28 am 07:28 Mostly Cloudy with Light Snow 32 undefined N/A N/A NNE 33 54 29.77 1008 1 1 N/A
7:53 am 07:53 Mostly Cloudy with Light Snow 30 -1 N/A N/A NNE 33 54 29.67 1005 1 1 0.03 0.76
8:03 am 08:03 Mostly Cloudy with Light Snow 30 -1 N/A N/A NNE 31 50 29.83 1010 1 2 N/A
8:36 am 08:36 Windy with Snow Likely 30 -1 N/A N/A N 36 57 29.83 1010 2 3 N/A
8:53 am 08:53 Windy with Snow Likely 30 -1 N/A N/A N 37 59 29.70 1006 4 6 N/A
9:09 am 09:09 Very Windy with Snow Likely 30 -1 N/A N/A N 40 65 29.83 1010 2 3 N/A
9:25 am 09:25 Windy with Snow Likely 30 -1 N/A N/A NNE 35 56 29.83 1010 1 1 N/A
9:33 am 09:33 Windy with Snow Likely 30 -1 N/A N/A N 36 57 29.83 1010 1 2 N/A
9:50 am 09:50 Windy with Snow Likely 30 -1 N/A N/A N 36 57 29.85 1011 1 1 N/A
9:53 am 09:53 Windy with Snow Likely 30 -1 N/A N/A N 36 57 29.76 1008 1 1 N/A
10:04 am 10:04 Windy with Snow Likely 30 -1 N/A N/A N 35 56 29.85 1011 1 2 N/A
10:19 am 10:19 Windy with Snow Likely 30 -1 N/A N/A N 35 56 29.88 1012 1 2 N/A
10:30 am 10:30 Windy with Snow Likely 30 -1 N/A N/A N 32 52 29.88 1012 2 2 N/A
10:34 am 10:34 Windy with Snow Likely 30 -1 N/A N/A N 29 46 29.88 1012 2 3 N/A
10:40 am 10:40 Windy with Snow Likely 30 -1 N/A N/A N 31 50 29.91 1013 3 5 N/A
10:53 am 10:53 Windy with Snow Likely 30 -1 N/A N/A N 31 50 29.84 1010 4 6 N/A
11:53 am 11:53 Cloudy 30 -1 N/A N/A N 28 44 29.91 1013 10 16 N/A
12:16 pm 12:16 Windy with Snow Likely 30 -1 N/A N/A N 28 44 30.03 1017 8 13 N/A
12:53 pm 12:53 Windy with Snow Likely 30 -1 N/A N/A N 25 41 29.94 1014 3 5 N/A
1:09 pm 13:09 Windy with Snow Likely 30 -1 N/A N/A N 32 52 30.06 1018 3 4 N/A
1:18 pm 13:18 Windy with Snow Likely 28 -2 N/A N/A N 35 56 30.06 1018 4 6 N/A
1:53 pm 13:53 Windy with Snow Likely 30 -1 N/A N/A N 29 46 29.97 1015 4 6 N/A
2:53 pm 14:53 Cloudy 32 undefined N/A N/A NNW 30 48 29.98 1015 10 16 N/A
3:53 pm 15:53 Cloudy 34 1 N/A N/A N 30 48 30.01 1016 10 16 N/A
4:22 pm 16:22 Cloudy 34 1 N/A N/A NNW 23 37 30.09 1019 10 16 N/A
4:53 pm 16:53 Cloudy 33 0.6 33 0.6 100 100 N 15 24 30.07 1018 10 16 N/A
5:28 pm 17:28 Cloudy 32 undefined 32 undefined 100 100 N 15 24 30.18 1022 10 16 N/A
5:53 pm 17:53 Cloudy 32 undefined 32 undefined 100 100 N 15 24 30.12 1020 10 16 N/A
6:53 pm 18:53 Cloudy 32 undefined 32 undefined 100 100 N 12 19 30.15 1021 10 16 N/A
7:53 pm 19:53 Cloudy 31 -0.6 29 -1.7 92 92 N 12 19 30.16 1022 10 16 N/A
8:53 pm 20:53 Cloudy 31 -0.6 30 -1.1 96 96 NNW 9 15 30.18 1022 10 16 N/A
9:53 pm 21:53 Cloudy 32 undefined 31 -0.6 96 96 NNW 8 13 30.17 1022 10 16 N/A
10:53 pm 22:53 Cloudy 32 undefined 29 -1.7 88 88 NNW 9 15 30.17 1022 10 16 N/A
11:23 pm 23:23 Partly Cloudy 28 -2.2 27 -2.8 96 96 WNW 5 7 30.24 1024 10 16 N/A
11:53 pm 23:53 Mostly Clear 27 -2.8 25 -3.9 92 92 NW 8 13 30.17 1022 10 16 N/A

Powered by AerisWeather